This is the latest recevied weather packets stored in our database for station/object K4KMJ. If no packets are shown the sender has not sent any weather packets the latest 10 day(s).
| Time | Temp. | Humidity | Pressure | Rain* | Wind** | Luminosity | Snow |
|---|---|---|---|---|---|---|---|
| 1788389344 | 26.67° C | 99% | 1015.8 hPa | 0 mm | - | 17 W/m² | - |
| 1788389038 | 26.67° C | 99% | 1016 hPa | 0 mm | - | 22 W/m² | - |
| 1788388735 | 26.67° C | 99% | 1016.1 hPa | 0 mm | - | 23 W/m² | - |
| 1788388435 | 26.67° C | 99% | 1016 hPa | 0 mm | - | 21 W/m² | - |
| 1788388129 | 26.11° C | 99% | 1016 hPa | 0 mm | - | 19 W/m² | - |
| 1788387828 | 26.11° C | 99% | 1015.9 hPa | 0 mm | - | 17 W/m² | - |
| 1788387523 | 26.11° C | 99% | 1015.9 hPa | 0 mm | - | 14 W/m² | - |
| 1788387222 | 26.11° C | 99% | 1016.1 hPa | 0 mm | - | 24 W/m² | - |
| 1788386918 | 26.11° C | 99% | 1015.7 hPa | 0 mm | - | 29 W/m² | - |
| 1788386617 | 26.11° C | 99% | 1015.9 hPa | 0.51 mm | - | 30 W/m² | - |
| 1788386312 | 25.56° C | 99% | 1015.8 hPa | 1.27 mm | - | 28 W/m² | - |
| 1788386007 | 25.56° C | 98% | 1016 hPa | 0.51 mm | - | 25 W/m² | - |
| 1788385703 | 25.56° C | 97% | 1016.1 hPa | 0.51 mm | - | 38 W/m² | - |
| 1788385402 | 25.56° C | 96% | 1016.1 hPa | 0.51 mm | - | 34 W/m² | - |
| 1788385097 | 26.67° C | 94% | 1016.2 hPa | 0 mm | - | 42 W/m² | - |
| 1788384793 | 28.89° C | 93% | 1016.2 hPa | 0 mm | - | 37 W/m² | - |
| 1788384491 | 28.89° C | 93% | 1016.1 hPa | 0 mm | - | 58 W/m² | - |
| 1788384203 | 28.89° C | 93% | 1016 hPa | 0 mm | - | 61 W/m² | - |
| 1788383884 | 28.89° C | 93% | 1016.1 hPa | 0 mm | - | 69 W/m² | - |
| 1788383580 | 28.89° C | 93% | 1016 hPa | 0 mm | - | 73 W/m² | - |
| 1788383280 | 28.89° C | 93% | 1016.1 hPa | 0 mm | - | 69 W/m² | - |
| 1788382975 | 28.89° C | 92% | 1016.2 hPa | 0 mm | - | 66 W/m² | - |
| 1788382673 | 28.89° C | 92% | 1016 hPa | 0 mm | - | 66 W/m² | - |
| 1788382368 | 28.89° C | 92% | 1016.3 hPa | 0 mm | - | 80 W/m² | - |
| 1788382063 | 28.89° C | 92% | 1015.9 hPa | 0 mm | - | 102 W/m² | - |
* Rain latest hour (hover to see other rain measurements)
** Current wind speed in m/s (hover to see current wind gust speed)